Regional Weather Roundup
Issued by NWS

Home | Current Version | Previous Version | Text Only | Print | Product List | Glossary Off
Versions: 1 2 3 4 5 6 7 8 9 10 11 12 13 14 15 16 17 18 19 20 21 22 23 24 25 26 27 28 29 30 31 32 33 34 35 36 37 38 39 40 41 42 43 44 45 46 47 48 49 50

876
ASUS43 KFSD 171510
RWRSD

WEATHER ROUNDUP FOR SOUTH DAKOTA
NATIONAL WEATHER SERVICE SIOUX FALLS SD
900 AM CST SUN DEC 17 2017

NOTE: "FAIR" INDICATES FEW OR NO CLOUDS BELOW 12,000 FEET WITH NO
SIGNIFICANT WEATHER AND/OR OBSTRUCTIONS TO VISIBILITY.


SDZ001>005-009-010-012>017-171600-
NORTHWEST AND NORTH CENTRAL SOUTH DAKOTA

CITY           SKY/WX    TMP DP  RH WIND       PRES   REMARKS
BUFFALO          N/A     25  22  88 SE6       29.89F WCI  18
FAITH            N/A     28  24  85 CALM      30.02S
MOBRIDGE       CLOUDY    27  23  85 CALM      30.02S
$$

SDZ012>016-024>037-041>051-057-063-072>074-171600-
SOUTHWEST AND SOUTH CENTRAL SOUTH DAKOTA

CITY           SKY/WX    TMP DP  RH WIND       PRES   REMARKS
RAPID CTY ARPT CLOUDY    29  25  85 S6        30.01S WCI  23
PIERRE         CLOUDY    31  30  96 CALM      30.05R
CUSTER         CLOUDY    23  20  88 SW3       29.92F
ELLSWORTH AFB  CLOUDY    29  28  95 S7        29.99F WCI  22
PHILIP         CLOUDY    31  28  89 NW5       30.05S WCI  26
PINE RIDGE     CLOUDY    31  29  92 CALM      30.03S
SPEARFISH      CLOUDY    27  25  93 S3        29.96F
WINNER         CLOUDY    34  31  88 SW3       30.06R
$$

SDZ004>011-016>023-039-040-171600-
NORTHEAST SOUTH DAKOTA

CITY           SKY/WX    TMP DP  RH WIND       PRES   REMARKS
ABERDEEN       CLOUDY    28  28 100 CALM      30.05S
WATERTOWN      CLOUDY    29  28  96 CALM      30.02S FOG
BROOKINGS        N/A     26  25  96 N3        30.04F FOG
SISSETON         N/A     29  27  92 SE6       30.04S WCI  23
$$

SDZ017-020-022-023-036>040-048>070-171600-
SOUTHEAST SOUTH DAKOTA

CITY           SKY/WX    TMP DP  RH WIND       PRES   REMARKS
SIOUX FALLS    CLOUDY    25  24  96 NE5       30.05S FOG     WCI  19
HURON          CLOUDY    29  28  96 MISG      30.06R FOG
CHAMBERLAIN    CLOUDY    32  32 100 CALM      30.06R
MITCHELL       CLOUDY    30  29  96 NW3       30.07S FOG
YANKTON        CLOUDY    25  24  96 NW7       30.05S FOG     WCI  17
$$

ABBREVIATIONS USED IN REMARKS
   TC - TEMPERATURE IN CELSIUS
  WCI - WIND CHILL INDEX
   HX - HEAT INDEX
  VSB - VISIBILITY





USA.gov is the U.S. government's official web portal to all federal, state and local government web resources and services.